User: anonymous   Login
Location: Champs
(48.8539°N, 2.6040°E)
Time: 17:49:17
(UTC+00:00)
Language:

ZY 1 - Orbit

View from above orbital plane
View from above orbital plane
View from above satellite
View from above satellite

Ground track
Ground track

The orbit data is extracted from the following two-line orbital elements,

1 38038U 11079A   22223.15229262  .00000077  00000-0  42342-4 0  9993
2 38038  98.5859 287.5157 0008014 100.8653 259.3440 14.35321816557333
Epoch (UTC): 11 August 2022 03:39:18
Eccentricity: 0.0008014
inclination: 98.5859°
perigee height: 768 km
apogee height: 780 km
right ascension of ascending node: 287.5157°
argument of perigee: 100.8653°
revolutions per day: 14.35321816
mean anomaly at epoch: 259.3440°
orbit number at epoch: 55733

The dashed part of the orbit path shows where the satellite is in the earth's shadow,  

DLR